Regional Weather Roundup
Issued by NWS Grand Forks, ND

Home | Current Version | Previous Version | Text Only | Print | Product List | Glossary On
Versions: 1 2 3 4 5 6 7 8 9 10 11 12 13 14 15 16 17 18 19 20 21 22 23 24 25 26 27 28 29 30 31 32 33 34 35 36 37 38 39 40 41 42 43 44 45 46 47 48 49 50
000
ASUS43 KFGF 061631
RWRFGF
PRAIRIE TO PINES  WEATHER ROUNDUP
NATIONAL WEATHER SERVICE EASTERN NORTH DAKOTA/GRAND FORKS ND
1100 AM CDT WED MAY 06 2015

 **SATELLITE DATA USED TO AUGMENT SKY COVER AT AUTOMATED STATIONS**
 *****  WEATHER ACROSS EASTERN NORTH DAKOTA  *****

CITY           SKY/WX    TMP DP  RH WIND       PRES   REMARKS
GRAND FORKS    LGT RAIN  60  57  89 S14       29.89S FOG
GRAND FRKS AFB LGT RAIN  59  57  94 S8        29.88S
GRAND FRKS NWS   N/A     57 N/A N/A S18         N/A
DEVILS LAKE    CLOUDY    57  54  88 SE15G21   29.83S
FARGO          CLOUDY    60  57  89 SE13      29.89S
WAHPETON ARPT  CLOUDY    59  55  88 SE15G23   29.90F
$$

 ***** WEATHER ACROSS CENTRAL AND WESTERN NORTH DAKOTA  *****

CITY           SKY/WX    TMP DP  RH WIND       PRES   REMARKS
BISMARCK       CLOUDY    60  59  96 SE14      29.75F FOG
MINOT          LGT RAIN  62  59  90 SE12      29.75F FOG
JAMESTOWN      CLOUDY    58  57  97 SE15      29.82F FOG
MINOT AFB      DRIZZLE   63  63  99 S16       29.74S
GARRISON         N/A     60  58  92 SE10      29.75F
WILLISTON      LGT RAIN  59  55  87 S9        29.71S
DICKINSON      CLOUDY    60  53  77 SE14      29.71S
HETTINGER      LGT RAIN  57  54  89 SE8       29.72F FOG
$$

 *****  OTHER AIRPORT OBSERVATIONS IN OUR AREA  *****

CITY           SKY/WX    TMP DP  RH WIND       PRES   REMARKS
WALHALLA       CLOUDY    63  63 100 S16G22    29.86S
GRAFTON AIRPOR CLOUDY    61  59  94 S21G26    29.89S
VALLEY CITY AR CLOUDY    57  57 100 SE15G23   29.86S
CANDO          CLOUDY    59  57  94 S18G24    29.83S FOG
CAVALIER APRT  CLOUDY    63  55  77 S18G25    29.86F HAZE
GWINNER        CLOUDY    61  61 100 SE18G25   29.86F
SHEYENNE NWR     N/A     57  56  98 SE14      29.95
ROLLA          NOT AVBL
 ***** THE ABOVE OBSERVATIONS ARE NON NWS ARE NOT QUALITY
       CONTROLLED AND MAY MIS-REPORT RAIN FOR SNOW...
$$

  *****  WEATHER ACROSS NORTHERN MINNESOTA  *****

CITY           SKY/WX    TMP DP  RH WIND       PRES   REMARKS
FLAG ISLAND    PTSUNNY   54  46  76 S7        29.97S
WARROAD        PTSUNNY   63  54  72 E10       29.94F
ROSEAU         PTSUNNY   64  54  68 SE9       29.93S
HALLOCK        CLOUDY    70  55  60 S21       29.88S
THF RVR FALLS  PTSUNNY   70  55  60 S15       29.91S
BAUDETTE       PTSUNNY   53  50  89 SE13      29.99F
WASKISH        CLOUDY    64  54  68 CALM      29.98S
CROOKSTON      RAIN      63  57  82 S15       29.92R
$$
  *****  WEATHER ACROSS CENTRAL AND WEST MINNESOTA  *****

CITY           SKY/WX    TMP DP  RH WIND       PRES   REMARKS
FOSSTON        PTSUNNY   64  54  68 SE16      29.94R
BEMIDJI        PTSUNNY   64  55  70 SE10G17   29.97F
PARK RAPIDS    CLOUDY    59  54  83 SE16      29.98S
ELBOW LAKE     CLOUDY    58  57  95 E13       29.91F
WADENA           N/A     57  55  94 SE13      29.98R
DETROIT LAKES  CLOUDY    59  55  88 SE15      29.95S
MOORHEAD       CLOUDY    61  57  88 SE13      29.90F FOG
FERGUS FALLS   CLOUDY    59  57  94 SE16      29.92F FOG
MORRIS MN      DRIZZLE   61  59  94 SE18G24   29.90F
STAPLES        CLOUDY    55  54  94 SE9       29.99S FOG
$$
  *****  WEATHER ELSEWHERE ACROSS MINNESOTA  *****

CITY           SKY/WX    TMP DP  RH WIND       PRES   REMARKS
DULUTH         CLOUDY    52  45  77 E12       30.09S
INTRNTL FALLS  LGT RAIN  55  51  86 CALM      30.03S
ELY            PTSUNNY   64  43  45 SE12      30.08F
CLOQUET        CLOUDY    54  45  71 E8        30.08S
WHEATON        LGT RAIN  57  55  94 SE21G28   29.90F
BRAINERD       CLOUDY    59  53  80 SE9       30.02F
HIBBING        CLOUDY    54  48  80 SE13      30.07S
ALEXANDRIA     CLOUDY    57  56  96 SE14      29.96F FOG
SAINT CLOUD    CLOUDY    58  55  90 E9        30.00F FOG
MINNEAPOLIS    CLOUDY    61  57  87 E16       30.03F FOG
$$

  *****  WEATHER ACROSS SOUTH DAKOTA  *****

CITY           SKY/WX    TMP DP  RH WIND       PRES   REMARKS
SIOUX FALLS    CLOUDY    66  60  81 SE20G26   29.82S
BROOKINGS      CLOUDY    66  61  82 SE18G25   29.83F
WATERTOWN      LGT RAIN  64  61  90 SE6       29.84F FOG
HURON          LGT RAIN  63  61  93 SE12      29.76F FOG
SISSETON         N/A     59  59 100 S17G24    29.87F
ABERDEEN       CLOUDY    65  61  87 SE18      29.80F
MITCHELL       RAIN      63  61  93 SE15      29.76F FOG
PIERRE         CLOUDY    66  57  72 SE15G22   29.71F
MOBRIDGE       PTSUNNY   65  61  87 SE18      29.71F
RAPID CITY     LGT RAIN  57  55  93 SE6       29.69F
$$

  *****  SOME WEATHER IN NEARBY STATES *****

CITY           SKY/WX    TMP DP  RH WIND       PRES   REMARKS
GLASGOW MT     CLOUDY    50  44  80 NW17      29.78R
GREAT FALLS MT MOSUNNY   45  34  65 N6        29.94S
CHEYENNE WY    LGT RAIN  51  46  83 N9        29.72S
SCOTTSBLUFF NE CLOUDY    57  51  80 E7        29.67F
OMAHA NE       CLOUDY    68  60  75 S24G31    29.85S
DES MOINES IA  CLOUDY    75  58  55 SE24      29.94F
DAVENPORT IA   MOSUNNY   70  60  70 SE12      30.11F
CHICAGO IL     PTSUNNY   64  58  80 VRB5      30.17S HAZE
EAU CLAIRE WI  CLOUDY    58  52  80 SE7       30.11S
LA CROSSE WI   CLOUDY    62  56  80 E5        30.10F
$$

  *****  SOME NATIONAL WEATHER *****

CITY           SKY/WX    TMP DP  RH WIND       PRES   REMARKS
LA GUARDIA NY  CLOUDY    62  41  46 NE8       30.30R
RALEIGH NC     PTSUNNY   77  57  50 VRB5      30.23F
ATLANTA GA     MOSUNNY   76  54  46 CALM      30.23S
NEW ORLEANS LA MOSUNNY   81  62  52 SE13      30.09S
OKLAHOMA CITY  CLOUDY    71  65  81 S23G30    29.91S
ALBUQUERQUE NM PTSUNNY   60  43  53 SW10      29.96S
SALT LAKE CITY PTSUNNY   59  47  64 S12       29.80F
LOS ANGELES CA CLOUDY    61  51  70 VRB3      29.91S
BOISE ID       CLOUDY    49  28  44 NW13      29.89S
SEATTLE WA     PTSUNNY   50  42  74 NE6       30.14S
$$

*** WEATHER ACROSS MANITOBA...SASKATCHEWAN AND ONTARIO ***
                ***ONTARIO***

CITY           SKY/WX    TMP DP  RH WIND       PRES   REMARKS
GERALDTON      MOSUNNY   68  28  22 W9G17     30.17F
THUNDER BAY    PTSUNNY   61  34  36 E12       30.17F
SIOUX LOOKOUT  PTSUNNY   66  37  34 S8        30.06F
TORONTO        MOSUNNY   68  39  34 SE10G17   30.28F
BIG TROUT LK   PTSUNNY   45  25  45 E9G17     30.17F
PICKLE LAKE    MOSUNNY   66  34  30 S6        30.07F
DRYDEN         SUNNY     66  45  45 SE15      30.03F
KENORA         PTSUNNY   64  46  52 SE15      29.99F
$$
                *** MANITOBA***

CITY           SKY/WX    TMP DP  RH WIND       PRES   REMARKS
BRANDON        LGT RAIN  59  57  94 SE14      29.80F
DAUPHIN        PTSUNNY   70  55  60 S12G17    29.75S
ISLAND LAKE    PTSUNNY   48  34  57 E9G20     30.02F
PILOT MOUND      N/A     63  55  77 S21         N/A
THE PAS        CLOUDY    43  32  65 NE13      29.84F
THOMPSON       CLOUDY    30  25  80 NE12G24   30.14S WCI  21
WINNIPEG       CLOUDY    70  54  56 S20       29.88S
LYNN LAKE      LGT SNOW  27  23  86 E15G21    30.13S WCI  15
CHURCHILL      PTSUNNY   19 N/A N/A NW17        N/A  WCI   4
GILLAM         CLOUDY    25  16  68 NE6       30.26F WCI  18
$$
                ***SASKATCHEWAN***

CITY           SKY/WX    TMP DP  RH WIND       PRES   REMARKS
ESTEVAN        PTSUNNY   64  54  68 S17       29.70S
KINDERSLEY     CLOUDY    43  36  75 NW16G26   29.80R
LLOYDMINSTER   DRIZZLE   37  36  93 N10       29.80R FOG
PRINCE ALBERT  LGT RAIN  39  39 100 E12       29.74F
REGINA         PTSUNNY   61  52  72 NW15      29.68S
YORKTON        SUNNY     66  52  59 SE15G23   29.69F
N. BATTLEFORD  CLOUDY    46  43  87 E6        29.74R
LA RONGE       LGT RAIN  34  32  93 NE16G24   29.88F WCI  23
SASKATOON      CLOUDY    46  45  93 NE8       29.72S
SWIFT CURRENT  CLOUDY    45  37  76 W26G33    29.79R
$$
NOTE: THESE ARE AUTOMATED STATIONS WITH LIMITED QUALITY CONTROL
      "FAIR" INDICATES FEW OR NO CLOUDS BELOW 12,000 FEET WITH NO
      SIGNIFICANT WEATHER AND/OR OBSTRUCTIONS TO VISIBILITY.
      SKY/WX - SKY CONDITION AND SIGNIFICANT WEATHER.
      TMP - AIR TEMPERATURE.    DP   - DEWPOINT TEMPERATURE.
      RH  - RELATIVE HUMIDITY.  PRES - PRESSURE.
      HX  - HEAT INDEX.         WCI  - WIND CHILL INDEX.
$



USA.gov is the U.S. government's official web portal to all federal, state and local government web resources and services.